This is the latest recevied weather packets stored in our database for station/object I1SXT-13. If no packets are shown the sender has not sent any weather packets the latest 10 day(s).
| Time | Temp. | Humidity | Pressure | Rain* | Wind** | Luminosity | Snow |
|---|---|---|---|---|---|---|---|
| 1777311567 | 17.22° C | 80% | 1017.9 hPa | 0 mm | - | - | - |
| 1777311270 | 17.22° C | 79% | 1017.7 hPa | 0 mm | - | - | - |
| 1777310966 | 17.78° C | 78% | 1017.7 hPa | 0 mm | - | - | - |
| 1777310669 | 17.78° C | 79% | 1017.7 hPa | 0 mm | - | - | - |
| 1777310365 | 17.78° C | 77% | 1018.4 hPa | 0 mm | - | - | - |
| 1777310067 | 17.78° C | 77% | 1018.2 hPa | 0 mm | - | - | - |
| 1777309764 | 18.33° C | 77% | 1017.3 hPa | 0 mm | - | - | - |
| 1777309169 | 18.33° C | 76% | 1017.9 hPa | 0 mm | - | - | - |
| 1777308865 | 18.33° C | 75% | 1018 hPa | 0 mm | - | - | - |
| 1777308264 | 18.33° C | 75% | 1017.2 hPa | 0 mm | - | - | - |
| 1777307967 | 18.89° C | 76% | 1017.7 hPa | 0 mm | - | - | - |
| 1777307669 | 18.89° C | 76% | 1017.9 hPa | 0 mm | - | - | - |
| 1777307365 | 18.89° C | 73% | 1017.8 hPa | 0 mm | - | - | - |
| 1777307068 | 18.89° C | 74% | 1017.8 hPa | 0 mm | - | - | - |
| 1777306764 | 18.89° C | 72% | 1017.8 hPa | 0 mm | - | - | - |
| 1777306467 | 18.89° C | 72% | 1017.4 hPa | 0 mm | - | - | - |
| 1777306170 | 18.89° C | 72% | 1017.8 hPa | 0 mm | - | - | - |
| 1777305866 | 18.89° C | 75% | 1017.8 hPa | 0 mm | - | - | - |
| 1777305569 | 19.44° C | 72% | 1018.3 hPa | 0 mm | - | - | - |
| 1777305265 | 19.44° C | 72% | 1016.9 hPa | 0 mm | - | - | - |
| 1777304670 | 19.44° C | 72% | 1017.8 hPa | 0 mm | - | - | - |
| 1777304366 | 20° C | 72% | 1018.7 hPa | 0 mm | - | - | - |
| 1777304069 | 20° C | 73% | 1017.7 hPa | 0 mm | - | - | - |
| 1777303765 | 20° C | 72% | 1018.6 hPa | 0 mm | - | - | - |
| 1777303164 | 20° C | 73% | 1018.5 hPa | 0 mm | - | - | - |
* Rain since midnight (hover to see other rain measurements)
** Current wind speed in m/s (hover to see current wind gust speed)